This is the latest recevied weather packets stored in our database for station/object lw9ero. If no packets are shown the sender has not sent any weather packets the latest 10 day(s).
| Time | Temp. | Humidity | Pressure | Rain* | Wind** | Luminosity | Snow |
|---|---|---|---|---|---|---|---|
| 1777703833 | 8.89° C | 88% | 1025.2 hPa | 0 mm | - | - | - |
| 1777703230 | 8.89° C | 86% | 1025.5 hPa | 0 mm | - | - | - |
| 1777702621 | 9.44° C | 86% | 1025.1 hPa | 0 mm | - | - | - |
| 1777702016 | 9.44° C | 85% | 1024.9 hPa | 0 mm | - | - | - |
| 1777701409 | 9.44° C | 84% | 1024.8 hPa | 0 mm | - | - | - |
| 1777700803 | 9.44° C | 85% | 1024.7 hPa | 0 mm | - | - | - |
| 1777700197 | 9.44° C | 86% | 1024.3 hPa | 0 mm | - | - | - |
| 1777699590 | 10° C | 84% | 1024.3 hPa | 0 mm | - | - | - |
| 1777698985 | 10.56° C | 83% | 1024 hPa | 0 mm | - | - | - |
| 1777698379 | 10.56° C | 82% | 1024 hPa | 0 mm | - | - | - |
| 1777697772 | 11.11° C | 81% | 1023.8 hPa | 0 mm | - | - | - |
| 1777697166 | 11.67° C | 80% | 1023.7 hPa | 0 mm | - | - | - |
| 1777696560 | 11.67° C | 80% | 1023.4 hPa | 0 mm | - | - | - |
| 1777695953 | 11.67° C | 78% | 1023.5 hPa | 0 mm | - | - | - |
| 1777695348 | 12.22° C | 77% | 1023.2 hPa | 0 mm | - | - | - |
| 1777694741 | 12.78° C | 76% | 1022.7 hPa | 0 mm | - | - | - |
| 1777694135 | 12.78° C | 76% | 1022.6 hPa | 0 mm | - | - | - |
| 1777693530 | 12.78° C | 76% | 1022.3 hPa | 0 mm | - | - | - |
| 1777692925 | 12.78° C | 76% | 1022.5 hPa | 0 mm | - | - | - |
| 1777692319 | 12.22° C | 77% | 1022.1 hPa | 0 mm | - | - | - |
| 1777691710 | 12.22° C | 79% | 1022.1 hPa | 0 mm | - | - | - |
| 1777691104 | 12.22° C | 78% | 1021.5 hPa | 0 mm | - | - | - |
| 1777690498 | 12.22° C | 77% | 1021.7 hPa | 0 mm | - | - | - |
| 1777689892 | 12.22° C | 76% | 1021.7 hPa | 0 mm | - | - | - |
| 1777689285 | 12.78° C | 75% | 1021.4 hPa | 0 mm | - | - | - |
* Rain latest hour (hover to see other rain measurements)
** Current wind speed in m/s (hover to see current wind gust speed)